Location: Kikino
(54.4440°N, 112.0940°W)
Time: 23:21:36
(UTC+00:00)

Vanguard 3 - Pass Details

Date: 30 May 2024
Orbit: 509 x 3231 km, 33.3° (Epoch: 21 June)

Event Time Altitude Azimuth Distance (km) Brightness Sun altitude
Rises 05:26:27 0° 252° (WSW) 4,761 11.2 -9.5°
Reaches altitude 10° 05:31:29 10° 230° (SW) 4,324 10.7 -9.8°
Maximum altitude 05:36:58 14° 203° (SSW) 4,504 10.5 -10.2°
Drops below altitude 10° 05:43:34 10° 177° (S) 5,388 10.7 -10.6°
Enters shadow 05:44:28 - 174° (S) 5,541 10.8 -10.7°
